Home > Weather > Perth > Past weeks

Flag for Australia Weather for the Past 2 Weeks in Perth, Western Australia, Australia

Now
66 °F

Passing clouds.


Feels Like: 66 °F
Forecast: 60 / 69 °F
Wind: 7 mph from Southwest

Location: Belmont Perth Airport

Current Time: May 4, 2016 at 7:55:48 PM

Latest Report: May 4, 2016 at 7:00 PM


Visibility: N/A

Pressure: 29.98 "Hg

Humidity: 68%

Dew Point: 55 °F

Location of PerthLocation

Historic Weather in Perth — Graph

°F

Perth Temperature Yesterday

Maximum temperature yesterday: 70 °F (at 12:30 PM)
Minimum temperature yesterday: 46 °F (at 6:00 AM)
Average temperature yesterday: 58 °F

High & Low Weather Summary for the Past Weeks

 TemperatureHumidityPressure
High84 °F (Apr 23, 3:00 PM)100% (Apr 19, 11:30 PM)30.36 "Hg (Apr 19, 11:30 PM)
Low46 °F (May 2, 1:30 AM)26% (Apr 23, 4:00 PM)29.77 "Hg (Apr 26, 6:00 AM)
Average62 °F73%30.08 "Hg
* Reported Apr 19 6:00 PM — May 4 6:30 PM, Perth, Weather by CustomWeather, © 2016

Note: Actual official high and low records may vary slightly from our data, if they occured in-between our weather recording intervals... More about our weather records

Advertising

Perth Weather History for the Previous 24 Hours

Scroll right to see more
 ConditionsComfort  
Time TempWeatherWind HumidityBarometerVisibility
6:30 PM
Wed, May 4
66 °FPassing clouds.7 mph68%29.95 "HgN/A
6:00 PM66 °FPassing clouds.13 mph64%29.95 "HgN/A
5:00 PM68 °FPassing clouds.12 mph60%29.95 "HgN/A
4:00 PM70 °FScattered clouds.13 mph57%29.95 "HgN/A
3:30 PM70 °FSunny.12 mph57%29.95 "HgN/A
3:00 PM70 °FPassing clouds.13 mph57%29.95 "HgN/A
2:00 PM72 °FScattered clouds.9 mph53%29.95 "HgN/A
1:30 PM70 °FPartly sunny.10 mph57%29.98 "HgN/A
1:00 PM70 °FPartly sunny.8 mph57%29.98 "HgN/A
12:30 PM70 °FPartly sunny.8 mph57%29.98 "HgN/A
12:00 PM68 °FPartly sunny.8 mph60%30.01 "HgN/A
11:00 AM66 °FPartly sunny.1 mph68%30.04 "HgN/A
10:30 AM66 °FPartly sunny.1 mph68%30.04 "HgN/A
10:00 AM64 °FOvercast.1 mph73%30.04 "HgN/A
9:30 AM63 °FPartly sunny.6 mph77%30.04 "HgN/A
9:00 AM61 °FPartly sunny.6 mph77%30.07 "HgN/A
8:30 AM59 °FPartly sunny.7 mph82%30.07 "HgN/A
8:00 AM57 °FPartly sunny.7 mph88%30.07 "HgN/A
7:30 AM55 °FOvercast.9 mph94%30.07 "HgN/A
7:00 AM55 °FPartly sunny.8 mph94%30.04 "HgN/A
6:30 AM55 °FPartly sunny.7 mph94%30.04 "HgN/A
6:00 AM55 °FPartly sunny.7 mph94%30.04 "HgN/A
5:00 AM55 °FPassing clouds.9 mph94%30.04 "HgN/A
4:30 AM54 °FPassing clouds.7 mph94%30.04 "HgN/A
4:00 AM55 °FPassing clouds.6 mph94%30.04 "HgN/A
3:30 AM55 °FPassing clouds.7 mph94%30.07 "HgN/A
3:00 AM55 °FPassing clouds.6 mph94%30.07 "HgN/A
2:30 AM55 °FPassing clouds.6 mph94%30.07 "HgN/A
2:00 AM52 °FPassing clouds.5 mph94%30.07 "HgN/A
1:30 AM50 °FPassing clouds.1 mph100%30.07 "HgN/A
1:00 AM50 °FPassing clouds.6 mph100%30.09 "HgN/A
12:30 AM50 °FPassing clouds.5 mph100%30.09 "HgN/A
12:00 AM52 °FPassing clouds.3 mph94%30.09 "HgN/A
11:30 PM
Tue, May 3
52 °FPassing clouds.1 mph94%30.09 "HgN/A
11:00 PM54 °FPassing clouds.6 mph94%30.09 "HgN/A
10:30 PM54 °FPassing clouds.6 mph94%30.09 "HgN/A
10:00 PM55 °FPassing clouds.5 mph94%30.12 "HgN/A
9:30 PM59 °FPassing clouds.6 mph88%30.12 "HgN/A
9:00 PM61 °FPassing clouds.5 mph83%30.12 "HgN/A
8:30 PM61 °FPassing clouds.8 mph83%30.12 "HgN/A
8:00 PM63 °FPassing clouds.9 mph77%30.12 "HgN/A
7:00 PM64 °FPassing clouds.10 mph73%30.09 "HgN/A
Weather by CustomWeather, © 2016

See weather overviewHow to use our weather pages